Regional Weather Roundup
Issued by NWS

Home | Current Version | Previous Version | Graphics & Text | Print | Product List | Glossary On
Versions: 1 2 3 4 5 6 7 8 9 10 11 12 13 14 15 16 17 18 19 20 21 22 23 24 25 26 27 28 29 30 31 32 33 34 35 36 37 38 39 40 41 42 43 44 45 46 47 48 49 50
000
ASUS43 KMKX 272011
RWRWI

WISCONSIN REGIONAL WEATHER ROUNDUP
NATIONAL WEATHER SERVICE MILWAUKEE/SULLIVAN WI
300 PM CDT TUE JUN 27 2017

NOTE: "FAIR" INDICATES FEW OR NO CLOUDS BELOW 12,000 FEET WITH NO
SIGNIFICANT WEATHER AND/OR OBSTRUCTIONS TO VISIBILITY.

WIZ001-002-006>008-014>016-023>028-272100-
NORTHWEST WISCONSIN

CITY           SKY/WX    TMP DP  RH WIND       PRES   REMARKS
SUPERIOR ARPT  NOT AVBL
ASHLAND        MOSUNNY   74  49  41 S13G20    29.93F
HAYWARD        MOSUNNY   72  44  36 SW12G18   29.97F
SIREN          SUNNY     74  41  29 SW13G18   29.96F
CUMBERLAND     SUNNY     70  43  37 S12G18    29.98F
RICE LAKE      SUNNY     73  43  33 SW13      30.00F
CHETEK         SUNNY     74  48  40 SW8G16    29.99F
LADYSMITH      MOSUNNY   73  45  36 SW12G17   30.01F
EAU CLAIRE     SUNNY     74  43  32 S16G22    29.99F
MENOMONIE      SUNNY     74  44  33 SW12      30.00F
NEW RICHMOND   SUNNY     74  42  32 SW13      29.97F
OSCEOLA        SUNNY     75  41  29 SW14      29.99F
$$

WIZ003>005-009-010-017-018-272100-
NORTH CENTRAL WISCONSIN

CITY           SKY/WX    TMP DP  RH WIND       PRES   REMARKS
MANITOWISH WTR MOSUNNY   71  47  43 SW7       29.97F
ARBOR VITAE    MOSUNNY   72  47  40 W9        29.98F
WOODRUFF       MOSUNNY   72  47  40 W9        29.98F
RHINELANDER    SUNNY     71  47  42 W8        30.00F
EAGLE RIVER    MOSUNNY   71  46  40 W8        29.98F
LAND O LAKES   MOSUNNY   72  42  33 SW8       29.99F
PHILLIPS       SUNNY     70  46  42 SW5       29.99S
TOMAHAWK       NOT AVBL
MEDFORD        MOSUNNY   70  47  43 W7        30.01F
MERRILL        SUNNY     72  46  39 SW7       30.01F
$$

WIZ029-030-035-036-043>047-272100-
CENTRAL WISCONSIN

CITY           SKY/WX    TMP DP  RH WIND       PRES   REMARKS
WAUSAU         MOSUNNY   70  46  42 SW9       30.00F
MOSINEE        PTSUNNY   72  46  40 SW9       30.03F
MARSHFIELD     MOSUNNY   72  46  39 W12       30.01F
STEVENS POINT  MOSUNNY   71  45  38 W8        30.03F
WAUPACA        SUNNY     76  43  30 W6        30.02F
WAUTOMA        MOSUNNY   75  47  36 W12G17    30.04F
WISC RAPIDS    SUNNY     75  46  35 SW7       30.03F
CAMP DOUGLAS   PTSUNNY   73  48  40 SW5       30.03F
$$

WIZ011>013-019>022-031-037>040-048>050-272100-
NORTHEAST WISCONSIN

CITY           SKY/WX    TMP DP  RH WIND       PRES   REMARKS
ANTIGO         MOSUNNY   69  50  51 NW6       30.01F
SHAWANO        MOSUNNY   75  46  35 W8        30.00F
OCONTO         PTSUNNY   72  49  43 W8        29.99F
STURGEON BAY     N/A     72  51  47 SW12      30.01F
GREEN BAY      MOSUNNY   75  53  46 W12       30.01S
MANITOWOC      CLOUDY    74  49  41 W10       30.03S
APPLETON       PTSUNNY   73  43  33 W12       30.01F
CLINTONVILLE   MOSUNNY   72  43  35 W7        30.01F
OSHKOSH        PTSUNNY   73  48  41 W12G18    30.03F
$$

WIZ032>034-041-042-053>061-272100-
SOUTHWEST WISCONSIN

CITY           SKY/WX    TMP DP  RH WIND       PRES   REMARKS
LA CROSSE      SUNNY     79  46  31 S10       30.02F
SPARTA         MOSUNNY   73  47  38 S8        30.04F
VIROQUA        MOSUNNY   73  46  38 S10G17    30.05F
BOSCOBEL       MOSUNNY   75  45  34 S5        30.05F
PRAIRIE DU CHI SUNNY     74  41  29 S5        30.04F
PLATTEVILLE    SUNNY     74  44  34 SW7G17    30.07F
$$

WIZ056-057-062-063-064-067-068-272100-
SOUTH CENTRAL WISCONSIN

CITY           SKY/WX    TMP DP  RH WIND       PRES   REMARKS
REEDSBURG      MOSUNNY   73  46  39 SW5       30.04F
BARABOO/DELLS  SUNNY     74  45  34 SW5       30.05F
LONE ROCK      MOSUNNY   75  45  34 W9        30.05F
MINERAL POINT  SUNNY     73  41  31 SW5       30.07F
MADISON        PTSUNNY   74  47  38 CALM      30.05F
MIDDLETON      MOSUNNY   75  46  34 SW6       30.06F
WATERTOWN      NOT AVBL
MONROE         SUNNY     72  41  33 S7        30.07F
JANESVILLE     MOSUNNY   75  43  31 VRB3      30.06F
$$

WIZ051-052-058>065-066-070>072-272100-
SOUTHEAST WISCONSIN

CITY           SKY/WX    TMP DP  RH WIND       PRES   REMARKS
MILWAUKEE      PTSUNNY   75  48  38 W12       30.05F
WAUKESHA       MOSUNNY   72  45  37 W9        30.07F
MILWAUKEE/TIMM PTSUNNY   73  43  33 W9        30.06F
RACINE         MOSUNNY   74  48  39 VRB6      30.08F
KENOSHA        PTSUNNY   73  48  41 W6        30.07F
FOND DU LAC    CLOUDY    73  46  38 W10       30.04F
SHEBOYGAN      MOSUNNY   74  50  42 W6        30.03F
WEST BEND      PTSUNNY   72  43  35 W7        30.05F
JUNEAU         PTSUNNY   71  47  42 SW8       30.07S
$$

LSZ147-162-272100-
LAKE SUPERIOR

STATION/POSITION TIME  TEMP    WIND        PRES    WAVE
                       AIR SEA DIR/SP/G            HT/PER
                 (UTC) (F)     (DEG/KT/KT) (MB)    (FT/S)
W MID LAKE BUOY  1950   47 39  210/ 10/ 10 1013.7F   1
DEVILS ISLAND    2000   65     250/ 11/ 14 1012.9F
SAXON HARBOR     1830   72     280/  6/ 14 1014.2F
$$

LMZ867-665-643>646-272100-
LAKE MICHIGAN

STATION/POSITION TIME  TEMP    WIND        PRES    WAVE
                       AIR SEA DIR/SP/G            HT/PER
                 (UTC) (F)     (DEG/KT/KT) (MB)    (FT/S)
CHAMBERS ISLAND  1940   69     150/  6/ 13 1015.6S
S GREEN BAY BUOY 2000   69     180/  8/ 10 1015.5
N MID LAKE BUOY  1950   58 58  190/ 10/ 12 1016.9F   1
NORTHPORT PIER   1940   65     160/ 10/ 15 1015.9S
KEWAUNEE LAKESHO 1942   56     180/ 10/ 11 1016.3F
SHEBOYGAN LAKESH 2000   59     160/ 16/ 17 1016.9F
PORT WASHINGTON  1920   76     330/  6/ 11 1018.3
ATWATER BUOY     1939   61 56  150/ 12/ 16 1017.6F
MILWAUKEE LAKESH 1950   65     140/ 11/ 14   N/A
S MID LAKE BUOY  1950   62 62  180/ 10/ 10 1018.9F   1/ 5
KENOSHA   LAKESH 2000   63     160/ 10/ 14 1017.9
$$

TC  - TEMPERATURE IN CELSIUS
VSB - VISIBILITY IN STATUTE MILES
WCI - WIND CHILL INDEX
HX  - HEAT INDEX




USA.gov is the U.S. government's official web portal to all federal, state and local government web resources and services.